Location: Peebles
(55.6410°N, 3.1709°W)
Time: 23:46:17
(UTC+01:00)

ISS - Visible Passes

Search period start: 10 July 2020 00:00
Search period end: 20 July 2020 00:00
Orbit: 417 x 421 km, 51.6° (Epoch: 11 July)

Date Brightness Start Highest point End Pass type
(mag) Time Alt. Az. Time Alt. Az. Time Alt. Az.
10 Jul -1.6 00:51:57 13° SE 00:51:57 13° SE 00:52:57 10° ESE visible
10 Jul -3.0 02:24:52 14° SW 02:27:18 33° SSE 02:30:22 10° E visible
11 Jul -2.8 01:38:26 21° SSW 01:39:48 28° SSE 01:42:45 10° E visible
11 Jul -3.3 03:13:00 10° WSW 03:16:12 42° S 03:19:24 10° ESE visible
12 Jul -2.5 00:51:47 22° S 00:52:20 23° SSE 00:55:04 10° ESE visible
12 Jul -3.3 02:25:29 10° WSW 02:28:40 41° S 02:31:51 10° ESE visible
13 Jul -2.3 00:04:38 18° SSE 00:04:53 18° SSE 00:07:16 10° ESE visible
13 Jul -3.3 01:37:58 10° WSW 01:41:07 38° S 01:44:17 10° E visible
13 Jul -3.2 03:14:25 10° W 03:17:34 37° S 03:20:43 10° ESE visible
13 Jul -2.0 23:15:41 10° S 23:17:27 14° SE 23:19:14 10° ESE visible
14 Jul -3.1 00:50:31 10° SW 00:53:35 33° SSE 00:56:39 10° E visible
14 Jul -3.4 02:26:49 10° WSW 02:30:01 41° S 02:33:12 10° ESE visible
15 Jul -2.9 00:03:07 10° SW 00:06:03 28° SSE 00:09:00 10° E visible
15 Jul -3.4 01:39:14 10° WSW 01:42:26 42° S 01:45:39 10° ESE visible
15 Jul -2.8 03:15:54 10° W 03:18:50 28° SSW 03:21:45 10° SE visible
15 Jul -2.6 23:15:49 10° SSW 23:18:33 23° SSE 23:21:16 10° ESE visible
16 Jul -3.4 00:51:40 10° WSW 00:54:51 41° S 00:58:03 10° ESE visible
16 Jul -3.1 02:28:13 10° W 02:31:17 33° SSW 02:34:21 10° SE visible
17 Jul -3.3 00:04:08 10° WSW 00:07:16 38° S 00:10:26 10° E visible
17 Jul -3.3 01:40:34 10° W 01:43:43 37° S 01:46:52 10° ESE visible
17 Jul -2.3 03:17:35 10° WSW 03:19:57 18° SSW 03:22:18 10° SSE visible
17 Jul -3.1 23:16:38 10° SW 23:19:42 33° SSE 23:22:46 10° E visible
18 Jul -3.4 00:52:55 10° WSW 00:56:07 41° S 00:59:19 10° ESE visible
18 Jul -2.6 02:29:44 10° WSW 02:32:27 23° SSW 02:34:27 14° SSE visible
18 Jul -2.8 22:29:12 10° SW 22:32:08 28° SSE 22:35:04 10° E visible
19 Jul -3.4 00:05:18 10° WSW 00:08:30 42° S 00:11:43 10° ESE visible
19 Jul -2.9 01:41:58 10° W 01:44:53 28° SSW 01:45:30 26° S visible
19 Jul -3.3 23:17:41 10° WSW 23:20:53 41° S 23:24:05 10° ESE visible
